Overview Statistics Trail Chart Weather Telemetry Raw packets
 

This is the latest recevied weather packets stored in our database for station/object WS4FSC-7. If no packets are shown the sender has not sent any weather packets the latest 10 day(s).

<< 15 16 17 18 19 20 21 >>
Time Temp. Humidity Pressure Rain* Wind** Luminosity Snow
1788442731 30.56° C 82% 1013 hPa - - 377 W/m² -
1788442011 30.56° C 82% 1013 hPa - - 323 W/m² -
1788441831 30° C 84% 1013 hPa - - 317 W/m² -
1788441111 29.44° C 85% 1013 hPa - - 193 W/m² -
1788440931 29.44° C 87% 1013 hPa - - 185 W/m² -
1788440208 29.44° C 87% 1013 hPa - - 65 W/m² -
1788440030 29.44° C 87% 1013 hPa - - 65 W/m² -
1788439131 28.89° C 89% 1013 hPa - - 89 W/m² -
1788438951 28.33° C 89% 1014 hPa - - 85 W/m² -
1788438887 28.33° C 90% 1014 hPa - - 77 W/m² -
1788438771 28.33° C 90% 1014 hPa - - 77 W/m² -
1788438231 27.78° C 93% 1014 hPa - - 77 W/m² -
1788438051 27.22° C 92% 1014 hPa - - 82 W/m² -
1788437871 27.22° C 93% 1013 hPa - - 76 W/m² -
1788437691 27.22° C 94% 1013 hPa - - 67 W/m² -
1788437510 27.22° C 95% 1013 hPa - - 65 W/m² -
1788437330 27.22° C 95% 1013 hPa - - 56 W/m² -
1788436250 26.11° C 96% 1013 hPa - - 36 W/m² -
1788436070 26.11° C 96% 1013 hPa - - 29 W/m² -
1788435891 26.11° C 96% 1013 hPa - - 25 W/m² -
1788435711 26.11° C 96% 1013 hPa - - 24 W/m² -
1788435351 26.11° C 96% 1013 hPa - - 20 W/m² -
1788434812 26.11° C 96% 1013 hPa - - 16 W/m² -
1788434632 25.56° C 97% 1013 hPa - - 16 W/m² -
1788434451 25.56° C 97% 1013 hPa - - 13 W/m² -

* Rain since midnight (hover to see other rain measurements)
** Current wind speed in m/s (hover to see current wind gust speed)